カタログに戻る

THORAD AGENA D DEB

運用中PO
NORAD 19238·DEBRIS·🇺🇸 United States

打ち上げ Apr 8, 1970 から Vandenberg Space Force Base

Loading…

次のパス (今後24時間)

TLE

最新Source: Space-Track

元期: Sep 14, 2026, 11:56 UTC

1 19238U 70025PT  26257.49761376  .00000953  00000-0  95136-3 0  9996
2 19238  99.8692  94.9839 0041068 218.5763 171.0935 13.80449155952395

AllMySatでTHORAD AGENA D DEBをリアルタイム追跡

Download on the App Store